Location: Boissi�res
(45.2500°N, 2.3667°E)
Time: 14:42:06
(UTC+00:00)

Cosmos 2084 Rocket - Pass Details

Date: 03 March 2021
Orbit: 527 x 654 km, 62.8° (Epoch: 23 April)

Event Time Altitude Azimuth Distance (km) Brightness Sun altitude
Rises 18:23:13 0° 323° (NW) 2,801 7.5 -8.3°
Reaches altitude 10° 18:25:27 10° 327° (NNW) 1,920 6.6 -8.7°
Maximum altitude 18:29:45 60° 48° (NE) 694 3.6 -9.4°
Drops below altitude 10° 18:34:13 10° 129° (SE) 1,987 5.7 -10.2°
Enters shadow 18:34:50 - 130° (SE) 2,228 5.9 -10.3°
